weather.gov     
National Weather Service

Regional Weather Roundup
NWS Homepage
This page is being discontinued on March 12, 2014.
The same data is available at this site. Please update your bookmarks.
Thank you, and we apologize for the inconvenience.
Please send an email to SR-SRH.Webmaster@noaa.gov with any concerns.


Current Version
Previous Version:    01  02  03  04  05  06  07  08  09  10  11  12  13  14  15  16  17  18  19  20  21  22  23  24  25  26  27  28  29  30  
   31  32  33  34  35  36  37  38  39  40  41  42  43  44  45  46  47  48  49  50  51  52  53  
[Printable]
791
ASUS43 KLSX 212307
RWRMO

WEATHER SUMMARY FOR MISSOURI
NATIONAL WEATHER SERVICE SPRINGFIELD MO
500 PM CST SUN DEC 21 2014

NOTE: "FAIR" INDICATES FEW OR NO CLOUDS BELOW 12,000 FEET WITH NO
       SIGNIFICANT WEATHER AND/OR OBSTRUCTIONS TO VISIBILITY.
       CURRENT SKY AND/OR WEATHER CONDITIONS ARE NOT AVAILABLE FOR
       CHILLICOTHE AND FARMINGTON.

MOZ001>031-035>038-043-044-053-054-220000-
...NORTHERN AND WESTERN MISSOURI...

CITY           SKY/WX    TMP DP  RH WIND       PRES   REMARKS
KANSAS CTY INT CLOUDY    44  40  85 S12       29.82F
KANSAS C DTWN  CLOUDY    46  40  79 S13G18    29.84F
LEE`S SUMMIT   CLOUDY    44  41  89 S9        29.85F
ST JOSEPH      CLOUDY    44  39  82 S10       29.82F
CHILLICOTHE      N/A     44  41  89 S9        29.88S
KIRKSVILLE     LGT RAIN  42  40  92 S12       29.90S

$$
MOZ066>068-077>081-088>096-101>105-220000-
...SOUTHWEST MISSOURI...

CITY           SKY/WX    TMP DP  RH WIND       PRES   REMARKS
SPRINGFIELD    CLOUDY    42  36  79 SE14      29.89F
JOPLIN         CLOUDY    47  38  71 S12       29.87F

$$
MOZ032>034-039>042-045>050-055>058-069>072-220000-
...CENTRAL MISSOURI...

CITY           SKY/WX    TMP DP  RH WIND       PRES   REMARKS
COLUMBIA       CLOUDY    42  37  82 SE15      29.93S
JEFFERSON CITY CLOUDY    43  36  76 SE10      29.96R
ROLLA          CLOUDY    39  33  79 SE8       29.95F
SEDALIA        CLOUDY    44  38  79 S10       29.90F
WHITEMAN AFB   CLOUDY    44  39  83 S13       29.88S
OSAGE BEACH    CLOUDY    43  34  70 SE7       29.93F

$$
MOZ051-052-059>065-220000-
...EAST CENTRAL MISSOURI...

CITY           SKY/WX    TMP DP  RH WIND       PRES   REMARKS
ST LOUIS INTL  CLOUDY    44  32  62 SE13      30.02F
SPIRIT OF STL  CLOUDY    42  33  70 SE7       30.01F
ST CHARLES     CLOUDY    42  34  73 SE8       30.01F

$$
MOZ072>076-082>087-097>100-106>115-220000-
...SOUTH CENTRAL AND SOUTHEAST MISSOURI...

CITY           SKY/WX    TMP DP  RH WIND       PRES   REMARKS
CAPE GIRARDEAU CLEAR     39  33  79 SE7       30.04F
FARMINGTON     CLOUDY    39  32  75 E6        30.04S
POPLAR BLUFF   CLOUDY    43  35  73 NE3       30.04S
WEST PLAINS    CLOUDY    41  33  73 E7        29.97F

$$




U.S. Dept. of Commerce
NOAA National Weather Service
1325 East West Highway
Silver Spring, MD 20910
E-mail: w-nws.webmaster@noaa.gov
Page last modified: May 16, 2007
NATIONAL WEATHER SERVICE: for Safety, for Work, for Fun - FOR LIFE